DELTA 1 DEB

Satellite information

Favourite Embed

Satellite Type and Status

DEBRISIN ORBIT

Key statistics

Satellite DELTA 1 DEB at a glance.

Uptime

19036

Days in orbit

Revolutions

≈ 12.6

Per day

Orbit

SSO

Sun Synchronous Orbit

Inclination

101.6

Latest

Satellite identification and parameters

Extended collection of information and parameters for DELTA 1 DEB.

Object identification

Identified? True

Debris? True

Object name: DELTA 1 DEB

International designator: 1973-086AC

Object number (NORAD): 7036

Object ID (CCSDS): 7036

Country: UNITED STATES OF AMERICA (US)

Current information (Y/N): Y

RCS size: MEDIUM

Orbital parameters

Period: 114.701 minutes

Inclination: 101.5823 deg

SMA: 7819.945 km

Apoapsis: 1476.691 km

Periapsis: 1406.93 km

RAAN: 325.6931 deg

Eccentricy: 0.00446051

Argument of periapsis: 202.2597 deg

Mean anomaly: 214.1893 deg

Mean motion: 12.55443504 rev/day

Mean motion (dot): 0.00000643 rev/day2

B* drag term: 0.0041887862 1/REarth

Two-line elements (TLE)

Creation date: Dec. 19, 2025, 2:08 a.m.

Reference frame: TEME

Reference center: EARTH

Epoch: Dec. 18, 2025, 9:11 p.m. UTC

TLE line 0: 0 DELTA 1 DEB

TLE line 1: 1 07036U 73086AC 25352.88283410 .00000643 00000-0 41888-2 0 9995

TLE line 2: 2 07036 101.5823 325.6931 0044605 202.2597 214.1893 12.55443504374514

Live tracking on map

Real-time ground track for satellite DELTA 1 DEB.

In-orbit conjunctions

A list of the most updated potential collisions computed for object DELTA 1 DEB.

Target Orbit TCA Probability of collision Miss distance Type
COSMOS 763 LEO 2025-07-19 01:44:34 0.0003272539 977.0 (m) PAYLOAD

Associated space launch

Meteorological satellite using radiometric imaging

DELTA 1 DEB was lifted into orbit during the mission ‘Delta 0300 | NOAA 3’, on board a Delta 0300 space rocket.

The launch took place on Nov. 6, 1973, 5:02 p.m. from Space Launch Complex 2W.

For more information about the launch, click the button.

Launch to space Delta 0300 | NOAA 3
Delta 0300 | NOAA 3

Agency: N/A

Status: Launch Successful

Launch date: Nov. 6, 1973, 5:02 p.m. UTC

Rocket: Delta 0300

Launch pad: Space Launch Complex 2W

Location: Vandenberg SFB, CA, USA

...

Latest news about this satellite

There are no fresh news available about this satellite. Check back as we update our databases every day.


Newsletter sign-up

Weekly statistics, charts and insights to help you stay on top of the space industry.